User: anonymous   Login
Location: Unspecified
(0.0000°N, 0.0000°E)
Time: 09:37:54
(UTC+00:00)
Language:

Altair - Orbit

View from above orbital plane
View from above orbital plane
View from above satellite
View from above satellite

Ground track
Ground track

The orbit data is extracted from the following two-line orbital elements,

1    50U 60009B   18115.89158615 -.00000086 +00000-0 +10611-5 0  9998
2    50 047.2334 033.1674 0113211 150.4529 210.2719 12.20103176574550
Epoch (UTC): 25 April 2018 21:23:53
Eccentricity: 0.0113211
inclination: 47.2334°
perigee height: 1502 km
apogee height: 1682 km
right ascension of ascending node: 33.1674°
argument of perigee: 150.4529°
revolutions per day: 12.20103176
mean anomaly at epoch: 210.2719°
orbit number at epoch: 57455

The dashed part of the orbit path shows where the satellite is in the earth's shadow,  

DLR